Location: Unspecified
(48.8656°N, 0.0000°E)
Time: 00:56:30
(UTC+00:00)

SR - Pass Details

Date: 01 July 2019
Orbit: 578 x 878 km, 66.7° (Epoch: 19 August)

Event Time Altitude Azimuth Distance (km) Brightness Sun altitude
Rises 07:41:21 0° 328° (NNW) 2,957 ? 33.1°
Reaches altitude 10° 07:44:23 10° 350° (N) 2,100 ? 33.6°
Maximum altitude 07:47:26 17° 30° (NNE) 1,755 ? 34.1°
Drops below altitude 10° 07:50:37 10° 69° (ENE) 2,219 ? 34.6°
Sets 07:53:56 0° 90° (E) 3,208 ? 35.1°
